Simultaneous Nadir Overpasses (SNOs) Predictions

Prediction of SNOs between GOES-15 and TERRA Satellite Orbit:

Table of predicted SNOs for the next 14.0 days since TLE Epoch: 7/30/2022
Index Date Time (GOES-15) GOES-15 Lat,Lon TERRA Lat,Lon Distance(km) Time Diff (sec)
1 07/31/2022 06:32:01 0.00,-128.02 0.83,-124.15 440.51 80
2 07/31/2022 18:55:55 0.04,-128.04 0.32,-129.29 142.79 80
3 08/02/2022 18:41:02 0.03,-127.98 -0.32,-126.35 185.40 80
4 08/03/2022 07:05:05 -0.08,-127.93 -0.84,-131.53 409.84 80
5 08/05/2022 06:52:52 -0.07,-127.86 -0.20,-128.59 82.44 80
6 08/07/2022 06:37:58 -0.06,-127.78 0.38,-125.63 244.06 80
7 08/07/2022 19:01:52 0.11,-127.79 0.77,-130.78 340.56 80
8 08/09/2022 18:49:39 0.10,-127.70 0.13,-127.83 14.98 80
9 08/11/2022 18:34:46 0.09,-127.61 -0.52,-124.89 310.16 80
10 08/12/2022 06:58:48 -0.14,-127.56 -0.70,-130.06 285.15 80
